SL-16 DEB, 23706

Orbit data source: Space-Track

SL-16 DEB, 23706 is space debris in LEO originally from a launch on Tue, 31 Oct 1995 UTC launched from the Tyuratam Missile And Space Complex (TTMTR). Debris objects in space refer to the collection of defunct objects orbiting the Earth. Examples of debris include non-operational satellites, rocket bodies, and fragments generated from explosions, collisions, or faulty payload assembly.

Loading next visibility...
Identifier
23706, 1995-058C
Orbit
LEO
Country
Flag of CISCIS
Related business
Manufacturer
Yuzhnoe
Mission
Spacecraft
Bus & Motor
SEP MOTOR COVER, Unknown motor
Mass
~0 kg wet, ~1 kg dry
Launch date (UTC)
1995-10-31 (31 years ago)
Launch vehicle
Unknown
Launch site
Tyuratam Missile And Space Complex (TTMTR)
Object type
Payload
Rocket body
Debris
Shape & HBR
Unknown shape, 0.1 m
Radar Cross Section
Medium (>0.1 m² and <1 m²)

Expand to show TLE details & history
Last TLE update: 2 days ago

TLE from 2 days ago
0 SL-16 DEB
1 23706U 95058C   26171.40663286  .00000054  00000-0  88438-4 0  9991
2 23706  71.0006  68.7223 0197887  38.4829  75.1294 13.74433926535762
Epoch: 2026-06-20T09:45Z
TLE epoch observation values (Epoch: 2026-06-20T09:45:33.079Z)
Latitude
58.44518°
Longitude
159.81286°
Altitude
958.342 km
Speed
7.396 km/s
True Right ascension
14h 19m 17s
True Declination
58° 17' 45"
Sunlit
Object was in daylight at epoch
Visualization orbit readout
Latitude
Unknown
Longitude
Unknown
Altitude
Unknown
Speed
Unknown
Apparent Right ascension
Unknown
Apparent Declination
Unknown
Sunlit
N/A
Visualization observer readout
Local Sidereal Time
02:18:53
Azimuth
Unknown
Elevation
Unknown
Doppler factor
Unknown
Orbital elements
Apogee altitude
1,127.3 km
Perigee altitude
836.018 km
Semi-major axis
7,359.796 km
Eccentricity
0.01979
Inclination
71.0006°
RAAN
68.7223°
Arg. of periapsis
38.4829°
True anomaly
77.33452°
Mean anomaly
75.1294°
Eccentric anomaly
76.23063°
Mean motion
3.43751 °/min
Orbital period
104.73 mins
BSTAR
0.000088438
Loading maneuver chart data...
Computing Atmospheric mass density...
Loading historical data...
Loading historical data...
Loading historical data...
Loading historical data...
Loading historical data...
Loading historical data...
Loading historical data...

Documentation

Showing up to 5 results
|